SM4IVE-5 Weather Reports


Display with metric or nautical units.
time (UTC)temp
F
wind
direction
speed
MPH
gust
MPH
rain 1hr
in
rain 24hr
in
rain mn
in
humidity
%
barometer
mb
20260902051335 57 300 1.0 6.0 0.00 0.00 0.00 88 1008.5
20260902050829 57 191 1.0 6.0 0.00 0.00 0.00 88 1008.6
20260902050337 57 238 1.0 6.0 0.00 0.00 0.00 88 1008.6
20260902045827 57 80 1.0 7.0 0.00 0.00 0.00 88 1008.6
20260902045337 57 206 1.0 5.0 0.00 0.00 0.00 88 1008.6
20260902044846 57 241 2.0 5.0 0.00 0.00 0.00 88 1008.7
20260902044354 57 263 1.0 4.0 0.00 0.00 0.00 88 1008.7
20260902043840 57 218 1.0 7.0 0.00 0.00 0.00 87 1008.7
20260902043329 57 290 2.0 7.0 0.00 0.00 0.00 87 1008.6
20260902042830 57 185 1.0 5.0 0.00 0.00 0.00 87 1008.6
20260902042330 58 253 1.0 8.0 0.00 0.00 0.00 87 1008.6
20260902041830 58 225 3.0 8.0 0.00 0.00 0.00 87 1008.6
20260902041354 58 290 2.0 11.0 0.00 0.00 0.00 86 1008.6
20260902040824 58 311 2.0 8.0 0.00 0.00 0.00 86 1008.6
20260902040333 58 302 2.0 7.0 0.00 0.00 0.00 86 1008.6
20260902035857 58 284 2.0 10.0 0.00 0.00 0.00 86 1008.6
20260902035329 58 18 2.0 12.0 0.00 0.00 0.00 86 1008.6
20260902034825 58 360 4.0 12.0 0.00 0.00 0.00 86 1008.6
20260902034326 58 236 3.0 8.0 0.00 0.00 0.00 86 1008.8
20260902033825 58 273 2.0 8.0 0.00 0.00 0.00 87 1008.8
20260902033326 58 298 2.0 8.0 0.00 0.00 0.00 87 1008.8
20260902032828 59 315 3.0 13.0 0.00 0.00 0.00 87 1008.8
20260902032327 59 325 4.0 13.0 0.00 0.00 0.00 87 1008.8
20260902031836 59 330 2.0 7.0 0.00 0.00 0.00 88 1008.8
20260902031324 59 246 1.0 4.0 0.00 0.00 0.00 88 1008.8
20260902030826 59 172 1.0 5.0 0.00 0.00 0.00 88 1008.8
20260902030326 59 219 0.0 5.0 0.00 0.00 0.00 88 1008.8
20260902025847 59 313 0.0 2.0 0.00 0.00 0.00 87 1008.8
20260902025334 59 249 1.0 5.0 0.00 0.00 0.00 87 1008.9
20260902024824 59 274 1.0 8.0 0.00 0.00 0.00 87 1008.8
20260902024347 59 303 1.0 8.0 0.00 0.00 0.00 87 1008.9
20260902023826 59 295 3.0 8.0 0.00 0.00 0.00 88 1008.9
20260902023326 59 304 2.0 8.0 0.00 0.00 0.00 89 1008.9
20260902022827 59 336 2.0 8.0 0.00 0.00 0.00 89 1008.9
20260902022334 59 207 1.0 5.0 0.00 0.00 0.00 89 1008.8
20260902021843 59 177 2.0 6.0 0.00 0.00 0.00 89 1008.8
20260902021345 59 298 2.0 8.0 0.00 0.00 0.00 89 1008.8
20260902020825 58 315 2.0 8.0 0.00 0.00 0.00 90 1008.8
20260902020325 58 169 2.0 6.0 0.00 0.00 0.00 90 1008.8
20260902015826 58 192 1.0 5.0 0.00 0.00 0.00 90 1008.8
20260902015327 58 259 1.0 4.0 0.00 0.00 0.00 90 1008.9
20260902014827 58 221 1.0 4.0 0.00 0.00 0.00 90 1008.8
20260902014335 57 240 2.0 7.0 0.00 0.00 0.00 90 1008.9
20260902013824 57 295 2.0 7.0 0.00 0.00 0.00 90 1008.9
20260902013325 57 182 2.0 5.0 0.00 0.00 0.00 90 1008.9
20260902012827 57 221 2.0 5.0 0.00 0.00 0.00 89 1008.9
20260902012347 57 186 2.0 5.0 0.00 0.00 0.00 89 1008.9
20260902011827 57 192 2.0 6.0 0.00 0.00 0.00 89 1008.9
20260902011347 57 206 2.0 6.0 0.00 0.00 0.00 89 1008.9
20260902010826 57 305 1.0 5.0 0.00 0.00 0.00 89 1008.9
20260902010327 57 173 2.0 5.0 0.00 0.00 0.00 89 1008.9
20260902005833 57 211 1.0 5.0 0.00 0.00 0.00 89 1008.9
20260902005340 57 180 2.0 5.0 0.00 0.00 0.00 89 1008.9
20260902004826 57 173 1.0 4.0 0.00 0.00 0.00 89 1008.9
20260902004353 57 185 2.0 6.0 0.00 0.00 0.00 89 1009.0
20260902003852 57 202 2.0 8.0 0.00 0.00 0.00 89 1009.0
20260902003332 57 199 1.0 4.0 0.00 0.00 0.00 89 1009.0
20260902002831 57 214 1.0 3.0 0.00 0.00 0.00 89 1009.0
20260902002351 57 205 1.0 6.0 0.00 0.00 0.00 89 1009.0
20260902001840 57 180 1.0 6.0 0.00 0.00 0.00 89 1009.1
20260902001329 57 190 1.0 4.0 0.00 0.00 0.00 89 1009.1
20260902000831 57 273 1.0 5.0 0.00 0.00 0.00 89 1009.1
20260902000330 57 191 2.0 5.0 0.00 0.00 0.00 89 1009.1
20260901235900 58 201 1.0 5.0 0.00 0.00 0.00 89 1009.0
20260901235328 58 215 1.0 3.0 0.00 0.00 0.00 89 1009.0
20260901234830 58 210 2.0 5.0 0.00 0.00 0.00 89 1009.0
20260901234332 58 190 3.0 5.0 0.00 0.00 0.00 89 1009.1
20260901233832 58 218 2.0 6.0 0.00 0.00 0.00 89 1009.2
20260901233329 58 192 3.0 6.0 0.00 0.00 0.00 89 1009.2
20260901232832 58 225 1.0 4.0 0.00 0.00 0.00 89 1009.2
20260901232331 58 184 1.0 4.0 0.00 0.00 0.00 89 1009.2
20260901231853 58 178 1.0 4.0 0.00 0.00 0.00 89 1009.2
20260901231351 58 174 0.0 4.0 0.00 0.00 0.00 89 1009.2
20260901230840 58 198 1.0 4.0 0.00 0.00 0.00 89 1009.2
20260901230329 58 283 1.0 3.0 0.00 0.00 0.00 88 1009.2
20260901225850 58 179 0.0 4.0 0.00 0.00 0.00 88 1009.1
20260901225330 58 318 0.0 2.0 0.00 0.00 0.00 88 1009.1
20260901224831 58 287 1.0 4.0 0.00 0.00 0.00 88 1009.2
20260901224340 58 261 1.0 4.0 0.00 0.00 0.00 88 1009.2
20260901223828 58 249 1.0 3.0 0.00 0.00 0.00 88 1009.2
20260901223349 58 288 0.0 4.0 0.00 0.00 0.00 88 1009.1
20260901222830 58 286 2.0 5.0 0.00 0.00 0.00 88 1009.1
20260901222331 58 318 2.0 7.0 0.00 0.00 0.00 88 1009.2
20260901221831 58 295 2.0 7.0 0.00 0.00 0.00 88 1009.2
20260901221331 58 290 1.0 4.0 0.00 0.00 0.00 88 1009.2
20260901220839 58 272 1.0 4.0 0.00 0.00 0.00 88 1009.2
20260901220325 58 84 1.0 3.0 0.00 0.00 0.00 88 1009.2
20260901215835 58 198 2.0 3.0 0.00 0.00 0.00 88 1009.2
20260901215324 58 227 0.0 4.0 0.00 0.00 0.00 87 1009.1
20260901214831 58 301 1.0 4.0 0.00 0.00 0.00 88 1009.2
20260901214339 58 188 0.0 3.0 0.00 0.00 0.00 88 1009.2
20260901213827 58 215 1.0 3.0 0.00 0.00 0.00 88 1009.2
20260901213336 58 275 1.0 3.0 0.00 0.00 0.00 88 1009.2
20260901212824 58 234 0.0 3.0 0.00 0.00 0.00 88 1009.2
20260901212352 58 250 0.0 2.0 0.00 0.00 0.00 87 1009.1
20260901211839 58 192 0.0 2.0 0.00 0.00 0.00 87 1009.1
20260901211329 58 192 0.0 1.0 0.00 0.00 0.00 87 1009.1
20260901210829 58 192 0.0 2.0 0.00 0.00 0.00 87 1009.1
20260901210329 58 192 0.0 2.0 0.00 0.00 0.00 87 1009.1
20260901205830 58 192 0.0 2.0 0.00 0.00 0.00 86 1009.1
20260901205338 58 192 0.0 2.0 0.00 0.00 0.00 86 1009.1
20260901204827 58 192 0.0 2.0 0.00 0.00 0.00 86 1009.1
20260901204336 58 192 0.0 2.0 0.00 0.00 0.00 86 1009.1
20260901203824 58 192 1.0 2.0 0.00 0.00 0.00 86 1009.1
20260901203331 59 192 0.0 2.0 0.00 0.00 0.00 85 1009.1
20260901202838 59 192 0.0 2.0 0.00 0.00 0.00 85 1009.1
20260901202325 59 192 0.0 2.0 0.00 0.00 0.00 85 1009.1
20260901201852 59 192 0.0 2.0 0.00 0.00 0.00 84 1009.1
20260901201330 60 192 0.0 2.0 0.00 0.00 0.00 83 1009.1
20260901200830 60 192 0.0 2.0 0.00 0.00 0.00 83 1009.1
20260901200330 60 192 0.0 2.0 0.00 0.00 0.00 82 1009.1
20260901195839 61 192 0.0 2.0 0.00 0.00 0.00 82 1009.0
20260901195328 61 192 0.0 1.0 0.00 0.00 0.00 82 1009.1
20260901194830 61 192 0.0 3.0 0.00 0.00 0.00 82 1009.1
20260901194332 61 192 1.0 3.0 0.00 0.00 0.00 82 1009.0
20260901193840 61 192 1.0 3.0 0.00 0.00 0.00 82 1009.0
20260901193329 61 210 1.0 3.0 0.00 0.00 0.00 82 1009.1
20260901192829 61 180 1.0 3.0 0.00 0.00 0.00 82 1009.1
20260901192330 61 272 0.0 2.0 0.00 0.00 0.00 82 1009.1
20260901191839 61 272 0.0 2.0 0.00 0.00 0.00 82 1009.1
20260901191329 61 272 0.0 2.0 0.00 0.00 0.00 81 1009.0
20260901190839 61 272 0.0 2.0 0.00 0.00 0.00 81 1009.1
20260901190328 62 272 1.0 2.0 0.00 0.00 0.00 82 1009.0
20260901185829 62 272 0.0 3.0 0.00 0.00 0.00 81 1009.0
20260901185330 62 272 1.0 3.0 0.00 0.00 0.00 80 1009.0
20260901184831 62 194 0.0 2.0 0.00 0.00 0.00 80 1009.0
20260901184351 62 194 0.0 2.0 0.00 0.00 0.00 79 1008.9
20260901183851 63 194 0.0 1.0 0.00 0.00 0.00 79 1008.8
20260901183339 63 194 0.0 3.0 0.00 0.00 0.00 80 1008.8
20260901182828 63 194 1.0 3.0 0.00 0.00 0.00 79 1008.8
20260901182349 63 194 0.0 2.0 0.00 0.00 0.00 79 1008.9
20260901181829 64 239 0.0 2.0 0.00 0.00 0.00 79 1008.8
20260901181329 64 238 1.0 2.0 0.00 0.00 0.00 80 1008.8
20260901180830 64 234 0.0 2.0 0.00 0.00 0.00 79 1008.8
20260901180330 64 234 1.0 2.0 0.00 0.00 0.00 79 1008.7
20260901175832 64 314 0.0 2.0 0.00 0.00 0.00 80 1008.7
20260901175339 64 316 0.0 1.0 0.00 0.00 0.00 80 1008.6
20260901174828 65 315 0.0 3.0 0.00 0.00 0.00 80 1008.6
20260901174329 65 317 1.0 3.0 0.00 0.00 0.00 81 1008.6
20260901173828 65 42 0.0 1.0 0.00 0.00 0.00 83 1008.5
20260901173329 65 98 0.0 0.0 0.00 0.00 0.00 83 1008.5
20260901172850 65 98 0.0 1.0 0.00 0.00 0.00 83 1008.5
20260901172357 66 98 0.0 1.0 0.00 0.00 0.00 83 1008.4
20260901171824 66 110 0.0 1.0 0.00 0.00 0.00 83 1008.4
20260901171353 66 111 0.0 1.0 0.00 0.00 0.00 83 1008.3
20260901170900 66 110 0.0 1.0 0.00 0.00 0.00 82 1008.3
20260901170328 66 111 0.0 1.0 0.00 0.00 0.00 82 1008.2
20260901165849 66 111 0.0 1.0 0.00 0.00 0.00 82 1008.3
20260901165329 66 110 0.0 1.0 0.00 0.00 0.00 82 1008.2
20260901164838 67 110 0.0 1.0 0.00 0.00 0.00 81 1008.3
20260901164328 67 111 1.0 1.0 0.00 0.00 0.00 80 1008.2
20260901163830 67 111 0.0 0.0 0.00 0.00 0.00 80 1008.2
20260901163330 67 111 0.0 1.0 0.00 0.00 0.00 79 1008.2
20260901162839 67 111 0.0 1.0 0.00 0.00 0.00 79 1008.2
20260901162328 68 111 0.0 1.0 0.00 0.00 0.00 79 1008.2
20260901161828 68 110 0.0 1.0 0.00 0.00 0.00 78 1008.2
20260901161329 68 110 0.0 1.0 0.00 0.00 0.00 76 1008.2
20260901160830 69 110 0.0 3.0 0.00 0.00 0.00 75 1008.2
20260901160331 69 111 1.0 3.0 0.00 0.00 0.00 75 1008.2
20260901155831 70 111 2.0 3.0 0.00 0.00 0.00 74 1008.2
20260901155339 70 110 0.0 0.0 0.00 0.00 0.00 70 1008.1
20260901154828 70 111 0.0 0.0 0.00 0.00 0.00 70 1008.1
20260901154350 70 111 0.0 3.0 0.00 0.00 0.00 70 1008.1
20260901153830 70 111 1.0 3.0 0.00 0.00 0.00 69 1008.1
20260901153330 70 110 0.0 3.0 0.00 0.00 0.00 71 1008.1
20260901152832 70 110 0.0 4.0 0.00 0.00 0.00 70 1008.1
20260901152339 70 111 1.0 4.0 0.00 0.00 0.00 71 1008.1
20260901151828 70 110 0.0 1.0 0.00 0.00 0.00 71 1008.1
20260901151329 70 111 0.0 3.0 0.00 0.00 0.00 71 1008.1
20260901150837 70 111 0.0 3.0 0.00 0.00 0.00 71 1008.1
20260901150325 70 111 0.0 2.0 0.00 0.00 0.00 70 1008.1
20260901145852 70 111 1.0 4.0 0.00 0.00 0.00 72 1008.1
20260901145330 69 110 2.0 4.0 0.00 0.00 0.00 71 1008.2
20260901144830 69 111 2.0 4.0 0.00 0.00 0.00 72 1008.2
20260901144331 69 111 0.0 6.0 0.00 0.00 0.00 72 1008.2
20260901143839 69 111 2.0 6.0 0.00 0.00 0.00 73 1008.2
20260901143328 69 111 0.0 3.0 0.00 0.00 0.00 73 1008.2
20260901142829 69 111 0.0 1.0 0.00 0.00 0.00 74 1008.2
20260901142335 69 110 0.0 3.0 0.00 0.00 0.00 74 1008.2
20260901141824 69 111 1.0 3.0 0.00 0.00 0.00 73 1008.2
20260901141331 69 111 0.0 3.0 0.00 0.00 0.00 74 1008.2
20260901140851 69 111 1.0 3.0 0.00 0.00 0.00 74 1008.2
20260901140330 69 110 1.0 3.0 0.00 0.00 0.00 74 1008.3
20260901135837 69 111 0.0 4.0 0.00 0.00 0.00 73 1008.3
20260901135346 69 110 1.0 4.0 0.00 0.00 0.00 73 1008.3
20260901134835 69 111 1.0 4.0 0.00 0.00 0.00 73 1008.3
20260901134324 70 111 0.0 3.0 0.00 0.00 0.00 74 1008.3
20260901133831 70 111 0.0 3.0 0.00 0.00 0.00 73 1008.4
20260901133339 70 111 2.0 6.0 0.00 0.00 0.00 73 1008.3
20260901132828 70 111 0.0 6.0 0.00 0.00 0.00 73 1008.3
20260901132329 69 351 1.0 4.0 0.00 0.00 0.00 73 1008.4
20260901131830 69 348 0.0 1.0 0.00 0.00 0.00 71 1008.4
20260901131331 70 348 0.0 1.0 0.00 0.00 0.00 72 1008.4
20260901130839 70 348 0.0 1.0 0.00 0.00 0.00 71 1008.4
20260901130328 70 348 0.0 2.0 0.00 0.00 0.00 71 1008.3
20260901125836 70 348 0.0 3.0 0.00 0.00 0.00 70 1008.4
20260901125325 71 348 1.0 4.0 0.00 0.00 0.00 70 1008.3
20260901124835 71 348 2.0 4.0 0.00 0.00 0.00 69 1008.4
20260901124325 71 349 1.0 4.0 0.00 0.00 0.00 69 1008.4
20260901123832 71 349 1.0 3.0 0.00 0.00 0.00 70 1008.3
20260901123330 71 349 0.0 3.0 0.00 0.00 0.00 70 1008.3
20260901122850 71 349 1.0 4.0 0.00 0.00 0.00 72 1008.3
20260901122329 70 344 1.0 4.0 0.00 0.00 0.00 71 1008.2
20260901121828 70 344 1.0 4.0 0.00 0.00 0.00 71 1008.3
20260901121329 70 344 1.0 4.0 0.00 0.00 0.00 72 1008.3
20260901120830 69 344 2.0 4.0 0.00 0.00 0.00 71 1008.3
20260901120330 69 344 1.0 3.0 0.00 0.00 0.00 73 1008.3
20260901115831 69 344 1.0 3.0 0.00 0.00 0.00 74 1008.4
20260901115400 68 344 0.0 1.0 0.00 0.00 0.00 75 1008.4
20260901114829 68 344 0.0 2.0 0.00 0.00 0.00 76 1008.5
20260901114329 68 344 0.0 2.0 0.00 0.00 0.00 74 1008.5
20260901113828 69 344 0.0 2.0 0.00 0.00 0.00 74 1008.3
20260901113328 70 360 0.0 3.0 0.00 0.00 0.00 72 1008.3
20260901112836 70 360 1.0 4.0 0.00 0.00 0.00 70 1008.3
20260901112325 71 360 2.0 5.0 0.00 0.00 0.00 72 1008.3
20260901111834 70 360 2.0 5.0 0.00 0.00 0.00 72 1008.3
20260901111401 70 360 1.0 2.0 0.00 0.00 0.00 73 1008.3
20260901110829 69 360 0.0 3.0 0.00 0.00 0.00 73 1008.3
20260901110329 69 360 2.0 3.0 0.00 0.00 0.00 75 1008.3
20260901105829 68 360 1.0 3.0 0.00 0.00 0.00 75 1008.4
20260901105350 67 360 1.0 2.0 0.00 0.00 0.00 77 1008.3
20260901104829 67 360 0.0 1.0 0.00 0.00 0.00 77 1008.4
20260901104329 67 360 0.0 2.0 0.00 0.00 0.00 75 1008.4
20260901103834 68 360 1.0 2.0 0.00 0.00 0.00 75 1008.4
20260901103328 68 360 0.0 3.0 0.00 0.00 0.00 74 1008.4
20260901102836 69 360 1.0 3.0 0.00 0.00 0.00 72 1008.3
20260901102344 69 360 1.0 3.0 0.00 0.00 0.00 73 1008.3
20260901101831 69 360 1.0 3.0 0.00 0.00 0.00 72 1008.3
20260901101328 69 360 1.0 3.0 0.00 0.00 0.00 74 1008.2
20260901100829 68 360 1.0 3.0 0.00 0.00 0.00 75 1008.2
20260901100349 68 360 1.0 3.0 0.00 0.00 0.00 74 1008.2
20260901095831 68 360 0.0 2.0 0.00 0.00 0.00 74 1008.1
20260901095331 68 360 1.0 3.0 0.00 0.00 0.00 74 1008.1
20260901094830 68 360 1.0 3.0 0.00 0.00 0.00 75 1008.1
20260901094354 68 360 1.0 3.0 0.00 0.00 0.00 74 1008.0
20260901093826 68 360 1.0 3.0 0.00 0.00 0.00 74 1008.0
20260901093349 67 360 1.0 4.0 0.00 0.00 0.00 76 1008.0
20260901092824 67 360 1.0 3.0 0.00 0.00 0.00 79 1008.0
20260901092324 67 360 0.0 3.0 0.00 0.00 0.00 78 1008.0
20260901091824 66 360 1.0 3.0 0.00 0.00 0.00 81 1008.0
20260901091345 66 360 1.0 3.0 0.00 0.00 0.00 79 1008.0
20260901090825 66 360 0.0 5.0 0.00 0.00 0.00 80 1007.9
20260901090326 66 360 2.0 5.0 0.00 0.00 0.00 81 1007.9
20260901085835 65 360 0.0 3.0 0.00 0.00 0.00 82 1007.9
20260901085324 65 360 2.0 3.0 0.00 0.00 0.00 83 1007.9
20260901084825 65 330 1.0 3.0 0.00 0.00 0.00 84 1007.9
20260901084326 64 330 1.0 2.0 0.00 0.00 0.00 84 1007.9
20260901083832 64 331 1.0 3.0 0.00 0.00 0.00 84 1007.9
20260901083340 64 331 0.0 3.0 0.00 0.00 0.00 86 1007.9
20260901082828 63 330 2.0 3.0 0.00 0.00 0.00 86 1007.9
20260901082356 63 331 0.0 2.0 0.00 0.00 0.00 87 1007.9
20260901081843 62 330 1.0 2.0 0.00 0.00 0.00 88 1007.9
20260901081325 62 331 1.0 3.0 0.00 0.00 0.00 87 1007.8
20260901080824 62 331 1.0 3.0 0.00 0.00 0.00 88 1007.8
20260901080334 62 330 1.0 2.0 0.00 0.00 0.00 88 1007.7
20260901075824 61 330 1.0 2.0 0.00 0.00 0.00 89 1007.7
20260901075345 61 331 0.0 2.0 0.00 0.00 0.00 89 1007.7
20260901074824 61 331 1.0 3.0 0.00 0.00 0.00 90 1007.7
20260901074325 60 331 1.0 3.0 0.00 0.00 0.00 90 1007.6
20260901073826 60 327 1.0 2.0 0.00 0.00 0.00 91 1007.6
20260901073347 60 327 0.0 2.0 0.00 0.00 0.00 92 1007.6
20260901072829 59 327 1.0 2.0 0.00 0.00 0.00 93 1007.6
20260901072330 59 327 1.0 3.0 0.00 0.00 0.00 93 1007.7
20260901071830 59 327 1.0 3.0 0.00 0.00 0.00 94 1007.6
20260901071330 58 327 2.0 3.0 0.00 0.00 0.00 95 1007.6
20260901070851 58 328 1.0 3.0 0.00 0.00 0.00 95 1007.6
20260901070330 58 328 1.0 3.0 0.00 0.00 0.00 95 1007.6
20260901065831 58 328 1.0 2.0 0.00 0.00 0.00 96 1007.6
20260901065332 57 328 1.0 2.0 0.00 0.00 0.00 96 1007.5
20260901064851 57 328 1.0 2.0 0.00 0.00 0.00 96 1007.5
20260901064350 57 328 1.0 3.0 0.00 0.00 0.00 96 1007.5
20260901063829 56 328 1.0 3.0 0.00 0.00 0.00 96 1007.5
20260901063330 56 329 0.0 2.0 0.00 0.00 0.00 96 1007.5
20260901062830 56 329 0.0 2.0 0.00 0.00 0.00 96 1007.5
20260901062352 55 305 0.0 2.0 0.00 0.00 0.00 96 1007.4
20260901061830 55 202 0.0 3.0 0.00 0.00 0.00 96 1007.4
20260901061338 54 202 1.0 3.0 0.00 0.00 0.00 96 1007.4
20260901060828 54 192 0.0 0.0 0.00 0.00 0.00 96 1007.4
20260901060330 53 192 0.0 0.0 0.00 0.00 0.00 95 1007.3
20260901055830 53 191 0.0 0.0 0.00 0.00 0.00 95 1007.3
20260901055351 52 192 0.0 0.0 0.00 0.00 0.00 95 1007.4
20260901054831 52 192 0.0 0.0 0.00 0.00 0.00 95 1007.4
20260901054332 52 192 0.0 0.0 0.00 0.00 0.00 95 1007.4
20260901053901 52 192 0.0 0.0 0.00 0.00 0.00 95 1007.5
20260901053329 52 192 0.0 0.0 0.00 0.00 0.00 95 1007.4
20260901052831 52 192 0.0 0.0 0.00 0.00 0.00 95 1007.3
20260901052331 52 192 0.0 0.0 0.00 0.00 0.00 95 1007.3
20260901051831 52 192 0.0 0.0 0.00 0.00 0.00 95 1007.3